Home   Weather   Sioux Falls   Past weeks

Flag for USA Past Weather in Sioux Falls, South Dakota, USA — Yesterday and Last 2 Weeks

Now
38 °F

Passing clouds.


Feels Like: 35 °F
Forecast: 33 / 49 °F
Wind: 3 mph from Northeast

Location: Foss Field

Current Time: Apr 29, 2017 at 12:54:50 am

Latest Report: Apr 28, 2017 at 11:56 pm


Visibility: 10 mi

Pressure: 30.17 "Hg

Humidity: 65%

Dew Point: 27 °F

Location of Sioux FallsLocation

Past Weather in Sioux Falls — Graph

°F

Sioux Falls Temperature Yesterday

Maximum temperature yesterday: 49 °F (at 3:56 pm)
Minimum temperature yesterday: 26 °F (at 4:56 am)
Average temperature yesterday: 39 °F

High & Low Weather Summary for the Past Weeks

 TemperatureHumidityPressure
High71 °F (Apr 23, 5:56 pm)100% (Apr 14, 6:44 pm)30.32 "Hg (Apr 14, 6:44 pm)
Low26 °F (Apr 28, 4:56 am)23% (Apr 16, 5:56 pm)29.48 "Hg (Apr 24, 5:56 pm)
Average51 °F75%29.91 "Hg
* Reported Apr 13 10:56 pm — Apr 28 10:56 pm, Sioux Falls, Weather by CustomWeather, © 2017

Note: Actual official high and low records may vary slightly from our data, if they occured in-between our weather recording intervals... More about our weather records

Advertising

Sioux Falls Weather History for the Previous 24 Hours

Scroll right to see more
 ConditionsComfort  
Time TempWeatherWind HumidityBarometerVisibility
10:56 pm
Fri, Apr 28
39 °FClear.7 mph65%30.15 "Hg10 mi
9:56 pm42 °FPassing clouds.9 mph57%30.13 "Hg10 mi
8:56 pm41 °FPassing clouds.7 mph67%30.10 "Hg10 mi
7:56 pm46 °FBroken clouds.10 mph58%30.05 "Hg10 mi
6:56 pm49 °FMostly cloudy.17 mph52%30.03 "Hg10 mi
5:56 pm48 °FMostly cloudy.14 mph54%30.02 "Hg10 mi
4:56 pm48 °FOvercast.14 mph56%30.01 "Hg10 mi
3:56 pm49 °FOvercast.14 mph57%29.99 "Hg10 mi
2:56 pm48 °FOvercast.14 mph56%29.98 "Hg10 mi
1:56 pm46 °FMore clouds than sun.20 mph58%29.97 "Hg10 mi
12:56 pm44 °FMostly cloudy.14 mph58%29.96 "Hg10 mi
11:56 am42 °FPartly sunny.16 mph62%29.97 "Hg10 mi
10:56 am42 °FBroken clouds.15 mph62%29.97 "Hg10 mi
9:56 am40 °FBroken clouds.9 mph73%29.94 "Hg10 mi
8:56 am36 °FBroken clouds.6 mph82%29.95 "Hg10 mi
7:56 am31 °FPartly sunny.No wind89%29.93 "Hg10 mi
6:56 am27 °FPassing clouds.3 mph96%29.90 "Hg10 mi
5:56 am26 °FPassing clouds.7 mph96%29.88 "Hg10 mi
4:56 am26 °FClear.6 mph96%29.88 "Hg10 mi
3:56 am28 °FClear.3 mph96%29.87 "Hg10 mi
2:56 am31 °FClear.5 mph85%29.87 "Hg10 mi
1:56 am31 °FClear.5 mph85%29.88 "Hg10 mi
12:56 am32 °FClear.6 mph85%29.89 "Hg10 mi
Weather by CustomWeather, © 2017

See weather overviewHow to use our weather pages